Location: Clyde
(45.1830°S, 169.3170°E)
Time: 08:21:36
(UTC+13:00)

Meteor 2-13 Rocket - Pass Details

Date: 24 January 2019
Orbit: 935 x 958 km, 82.5° (Epoch: 15 October)

Event Time Altitude Azimuth Distance (km) Brightness Sun altitude
Rises 22:28:20 0° 0° (N) 3,587 7.1 -10.4°
Reaches altitude 10° 22:30:48 10° 2° (N) 2,652 6.4 -10.7°
Maximum altitude 22:36:50 73° 85° (E) 996 4.4 -11.5°
Drops below altitude 10° 22:42:59 10° 167° (SSE) 2,697 7.3 -12.3°
Sets 22:45:30 0° 169° (S) 3,652 8.0 -12.6°
